Location: Nebel
(54.6502°N, 8.3475°E)
Time: 23:43:57
(UTC+01:00)

Envisat - Pass Details

Date: 05 December 2022
Orbit: 763 x 765 km, 98.2° (Epoch: 01 February)

Event Time Altitude Azimuth Distance (km) Brightness Sun altitude
Rises 05:42:23 0° 12° (NNE) 3,249 6.3 -23.0°
Reaches altitude 10° 05:44:47 10° 6° (N) 2,318 5.5 -22.7°
Enters shadow 05:48:47 42° 323° (NW) 1,096 3.4 -22.1°
